#timestamp,LO_Frequency,Hit 
1506142815.5,286047014.2,P
1506142835.4,286047008.7,P
1506142855.2,286047004.5,N
1506142875.0,286047006.5,N
1506142875.9,286047006.5,N
1506142895.8,286047009.2,N
1506142915.6,286047009.8,P
1506142935.4,286046998.2,N
1506142955.3,286046997.7,N
1506142975.1,286046994.3,N
1506142976.0,286046994.3,N
1506142995.8,286046991.9,N
1506143015.7,286046992.0,N
1506143035.5,286046992.3,N
1506143055.3,286046992.5,N
1506143075.1,286046996.0,N
1506143095.9,286046997.7,N
1506143115.7,286046995.4,N
1506143135.5,286046990.7,N
1506143155.4,286046985.6,N
1506143175.2,286046986.7,N
1506143195.0,286046982.4,N
1506143195.9,286046982.4,N
1506143215.8,286046984.3,N
1506143235.6,286046987.7,N
1506143255.4,286046987.6,N
1506143275.3,286046985.1,N
1506143295.1,286046982.1,N
1506143296.0,286046982.1,N
1506143315.8,286046981.1,N
1506143335.7,286046980.7,N
1506143355.5,286046984.6,N
1506143375.3,286046988.6,N
1506143395.1,286046990.9,N
1506143415.9,286046989.0,N
1506143435.7,286046989.1,N
1506143455.5,286046986.5,N
1506143475.4,286046985.8,N
1506143495.2,286046987.5,N
1506143515.0,286046988.4,N
1506143515.9,286046988.4,N
1506143535.8,286046986.1,P
1506143555.6,286047003.1,P
1506143575.4,286046999.1,N
1506143595.3,286046997.7,N
1506143615.1,286046995.3,N
1506143635.8,286046998.3,N
1506143655.7,286046999.7,N
1506143675.5,286047004.4,N
1506143695.3,286046997.0,N
1506143715.2,286046997.9,N
1506143735.9,286046997.2,N
1506143755.7,286047000.6,N
1506143775.6,286047001.3,N
1506143795.4,286047001.4,N
1506143815.2,286047003.5,N
1506143835.0,286047003.7,N
1506143835.9,286047003.7,N
1506143855.8,286047001.3,N
1506143875.6,286047004.6,N
1506143895.4,286047003.6,N
1506143915.3,286047002.2,N
1506143935.1,286047000.7,N
1506143955.8,286046998.4,N
1506143975.7,286047000.1,N
1506143995.5,286047002.6,N
1506144015.3,286047003.1,N
1506144035.2,286047005.9,N
1506144055.9,286047004.9,N
1506144075.7,286047005.7,N
1506144095.6,286047002.8,N
1506144115.4,286046999.8,N
1506144135.2,286046999.9,N
1506144155.0,286047004.2,N
1506144156.0,286047004.2,N
1506144175.8,286047002.2,N
1506144195.6,286046997.0,N
1506144215.4,286046996.2,N
1506144235.3,286046993.8,N
1506144255.1,286046997.7,N
1506144275.8,286046998.8,N
1506144295.7,286047003.0,N
1506144315.5,286047007.5,N
1506144335.3,286047002.8,N
1506144355.2,286046998.9,N
1506144375.9,286046997.1,N
1506144395.7,286047001.2,N
1506144415.6,286046999.7,N
1506144435.4,286047003.3,N
1506144455.2,286047005.1,N
1506144475.1,286047003.9,N
1506144476.0,286047003.9,N
1506144495.8,286047001.2,N
1506144515.6,286047001.8,N
1506144535.5,286047003.0,N
1506144555.3,286047005.9,N
1506144575.1,286047005.6,N
1506144595.8,286047009.2,N
1506144615.7,286047008.7,N
1506144635.5,286047005.3,N
1506144655.3,286047007.2,N
1506144675.2,286047004.6,N
1506144695.9,286047004.5,N
1506144715.7,286047005.7,N
1506144735.6,286047005.4,N
1506144755.4,286047004.4,N
1506144775.2,286047004.2,N
1506144795.1,286047003.4,N
1506144796.0,286047003.4,N
1506144815.8,286047006.7,N
1506144835.6,286047006.9,N
1506144855.5,286047003.8,N
1506144875.3,286047001.7,N
1506144895.1,286047002.3,N
1506144915.8,286047003.6,N
1506144935.7,286047003.6,N
1506144955.5,286047000.3,N
1506144975.3,286046996.1,N
1506144995.2,286046996.4,N
1506145015.0,286046993.4,N
1506145015.9,286046993.4,N
1506145035.7,286046997.6,N
1506145055.6,286047000.4,N
1506145075.4,286047004.0,N
1506145095.2,286047002.2,N
1506145115.1,286047001.5,N
1506145116.0,286047001.5,N
1506145135.8,286046998.8,N
1506145155.6,286047002.2,N
1506145175.5,286047002.8,N
1506145195.3,286047003.7,N
1506145215.1,286046999.8,N
1506145235.9,286047000.8,N
1506145255.7,286046999.7,N
1506145275.5,286046999.8,N
1506145295.4,286047001.6,N
1506145315.2,286047002.3,N
1506145335.0,286047002.6,N
1506145335.9,286047002.6,N
1506145355.7,286046998.1,N
1506145375.6,286046995.6,N
1506145395.4,286046995.6,N
1506145415.2,286046994.3,N
1506145435.1,286046993.6,N
1506145436.0,286046993.6,N
1506145455.8,286046992.5,N
1506145475.6,286046991.7,N
1506145495.5,286046994.5,N
1506145515.3,286046992.4,N
1506145535.1,286046994.8,N
1506145555.9,286046997.8,N
1506145575.7,286046998.5,N
1506145595.5,286046998.1,N
1506145615.4,286046998.6,N
1506145635.2,286046996.0,N
1506145655.0,286046996.3,N
1506145655.9,286046996.3,N
1506145675.8,286046997.2,N
1506145695.6,286046996.6,N
1506145715.4,286046996.3,N
1506145735.2,286046997.8,N
1506145755.1,286046993.9,N
1506145756.0,286046993.9,N
1506145775.8,286046993.0,N
1506145795.6,286046994.4,N
1506145815.5,286046991.8,N
1506145835.3,286046996.4,N
1506145855.1,286046998.2,N
1506145875.9,286046998.4,N
1506145895.7,286047002.3,N
1506145915.5,286047004.9,N
1506145935.4,286047004.5,N
1506145955.2,286047006.0,N
1506145975.0,286047004.1,N
1506145975.9,286047004.1,N
1506145995.8,286047005.8,N
1506146015.6,286047007.1,N
1506146035.4,286047010.6,N
1506146055.3,286047010.8,N
1506146075.1,286047010.1,N
1506146076.0,286047010.1,N
1506146095.8,286047008.0,N
1506146115.7,286047012.1,N
1506146135.5,286047009.4,N
1506146155.3,286047010.0,N
1506146175.1,286047008.0,N
1506146195.9,286047009.9,N
1506146215.7,286047004.9,N
1506146235.5,286047002.1,N
1506146255.4,286047004.2,N
1506146275.2,286047005.9,N
1506146295.0,286047002.1,N
1506146295.9,286047002.1,N
1506146315.8,286046999.1,N
1506146335.6,286047000.7,N
1506146355.4,286047002.6,N
1506146375.3,286047003.3,N
1506146395.1,286047007.1,N
1506146396.0,286047007.1,N
